Flag for United Kingdom Weather past 2 weeks in Newport, Wales, United Kingdom

Now
59 °F

Passing clouds.


Feels Like: 58 °F
Forecast: 47 / 62 °F
Wind: 8 mph from West

Location: Bristol / Lulsgate

Current Time: Sep 1, 2015 at 6:19:06 PM

Latest Report: Sep 1, 2015 at 5:50 PM


Visibility: N/A

Pressure: 30.09 "Hg

Humidity: 82%

Dew point: 54 °F

Location of NewportLocation

Historic Weather in Newport — Graph

°F

Newport temperature yesterday

Maximum temperature yesterday: 59 °F (at 12:20 AM)
Minimum temperature yesterday: 54 °F (at 11:20 PM)
Average temperature yesterday: 56 °F

Past Weeks' High & Low Weather Summary

 TemperatureHumidityPressure
High77 °F (Aug 22, 3:50 PM)100% (Aug 19, 8:20 PM)30.12 "Hg (Aug 19, 8:20 PM)
Low48 °F (Sep 1, 5:50 AM)43% (Aug 17, 4:20 PM)29.50 "Hg (Aug 24, 5:20 AM)
Average59 °F86%29.90 "Hg
* Reported Aug 17 4:20 PM — Sep 1 4:50 PM, Newport, Weather by CustomWeather, © 2015

Note: Actual official high and low records may vary slightly from our data, if they occured in-between our weather recording intervals... More about our weather records

Advertising

Newport weather history for previous 24 hours

 ConditionsComfort  
Time TempWeatherWind HumidityBarometerVisibility
4:50 PM
Tue, Sep 1
61 °FScattered showers. Scattered clouds.9 mph83%30.09 "HgN/A
4:20 PM59 °FScattered showers. Scattered clouds.8 mph88%30.09 "HgN/A
3:50 PM55 °FRain showers. Scattered clouds.14 mph77%30.09 "HgN/A
3:20 PM63 °FScattered showers. Scattered clouds.8 mph73%30.09 "HgN/A
2:50 PM61 °FScattered showers. Passing clouds.9 mph77%30.12 "HgN/A
2:20 PM61 °FScattered showers. Scattered clouds.9 mph68%30.12 "HgN/A
1:50 PM63 °FScattered showers. Scattered clouds.8 mph68%30.12 "HgN/A
1:20 PM59 °FScattered showers. Scattered clouds.8 mph72%30.12 "HgN/A
12:50 PM61 °FScattered showers. Scattered clouds.3 mph63%30.12 "HgN/A
12:20 PM61 °FScattered clouds.5 mph63%30.12 "HgN/A
11:50 AM61 °FScattered clouds.6 mph68%30.12 "HgN/A
11:20 AM59 °FScattered clouds.6 mph77%30.12 "HgN/A
10:50 AM59 °FScattered clouds.5 mph72%30.09 "HgN/A
10:20 AM57 °FScattered clouds.6 mph82%30.09 "HgN/A
9:50 AM57 °FScattered clouds.7 mph77%30.09 "HgN/A
9:20 AM55 °FPassing clouds.7 mph82%30.09 "HgN/A
8:50 AM55 °FPassing clouds.7 mph82%30.07 "HgN/A
8:20 AM54 °FPassing clouds.7 mph88%30.07 "HgN/A
7:50 AM54 °FPassing clouds.7 mph88%30.07 "HgN/A
7:20 AM52 °FPassing clouds.8 mph88%30.07 "HgN/A
6:50 AM50 °FClear.7 mph88%30.07 "Hg10 mi
6:20 AM48 °FClear.6 mph87%30.07 "Hg10 mi
5:50 AM48 °FClear.6 mph87%30.07 "Hg10 mi
3:50 AM52 °FClear.6 mph88%30.04 "Hg10 mi
3:20 AM52 °FClear.6 mph88%30.04 "Hg10 mi
2:50 AM52 °FClear.6 mph94%30.04 "Hg10 mi
2:20 AM52 °FPassing clouds.3 mph94%30.07 "HgN/A
1:20 AM54 °FClear.5 mph94%30.07 "Hg10 mi
12:50 AM54 °FClear.6 mph94%30.07 "Hg10 mi
12:20 AM54 °FPassing clouds.6 mph94%30.04 "HgN/A
11:50 PM
Mon, Aug 31
54 °FScattered showers. Passing clouds.6 mph94%30.04 "HgN/A
11:20 PM54 °FScattered showers. Passing clouds.6 mph94%30.04 "HgN/A
10:20 PM55 °FScattered showers. Passing clouds.6 mph94%30.04 "HgN/A
9:50 PM55 °FScattered showers. Passing clouds.6 mph94%30.04 "HgN/A
9:20 PM55 °FScattered showers. Passing clouds.7 mph94%30.04 "HgN/A
8:50 PM55 °FPassing clouds.6 mph94%30.04 "HgN/A
8:20 PM55 °FPassing clouds.7 mph94%30.01 "HgN/A
7:50 PM55 °FScattered showers. Passing clouds.6 mph94%30.01 "HgN/A
7:20 PM57 °FScattered showers. Passing clouds.9 mph88%30.01 "HgN/A
6:50 PM57 °FScattered showers. Scattered clouds.9 mph88%30.01 "HgN/A
6:20 PM59 °FScattered clouds.10 mph82%30.01 "HgN/A
Weather by CustomWeather, © 2015

See weather overviewHow to use our weather pages